Weather History for KNPA - November, 2012

Change the Weather History Date:

Wednesday, November 7, 2012

  Actual Average Record
Temperature  
Mean Temperature 54 °F -  
Max Temperature 66 °F 71 °F 82 °F (2000)
Min Temperature 42 °F 52 °F 35 °F (2001)
Degree Days  
Heating Degree Days 11    
Growing Degree Days 4 (Base 50)    
Moisture  
Dew Point 43 °F    
Average Humidity 69    
Maximum Humidity 100    
Minimum Humidity 39    
Precipitation  
Precipitation 0.00 in - - ()
Sea Level Pressure  
Sea Level Pressure 30.04 in    
Wind  
Wind Speed 5 mph (NW)    
Max Wind Speed 13 mph    
Max Gust Speed 18 mph    
Visibility 10 miles    
Events Rain    
Averages and records for this station are not official NWS values.
T = Trace of Precipitation, MM = Missing Value Source: NWS Daily Summary

Daily Weather History Graph

Daily Weather History Graph

Search for Another Location

Airport or City:

Trip Planner

Search our weather history database for the weather conditions in past years. The results will help you decide how hot, cold, wet, or windy it might be!

Date:

Astronomy

Nov. 07, 2012 Rise Set
Actual Time 6:08 AM CST 4:56 PM CST
Civil Twilight 5:43 AM CST 5:21 PM CST
Nautical Twilight 5:15 AM CST 5:50 PM CST
Astronomical Twilight 4:46 AM CST 6:18 PM CST
Moon No Moon Rise 12:39 PM CST (11/7)
Length of Visible Light 11h 38m
Length of Day
10h 48m
Last Quarter, 43% of the Moon is Illuminated
Nov 7
Last Quarter
Nov 13
New
Nov 20
First Quarter
Nov 28
Full
Dec 6
Last Quarter

Hourly Weather History & Observations

Time (CST) Temp. Windchill Dew Point Humidity Pressure Visibility Wind Dir Wind Speed Gust Speed Precip Events Conditions
12:56 AM 48.9 °F - 46.0 °F 90% 30.03 in 10.0 mi WNW 4.6 mph - N/A   Clear
1:56 AM 48.0 °F - 46.0 °F 93% 30.03 in 10.0 mi NW 5.8 mph - N/A   Clear
2:56 AM 48.0 °F - 45.0 °F 89% 30.03 in 10.0 mi NW 3.5 mph - N/A   Clear
3:56 AM 46.0 °F 44.8 °F 44.1 °F 93% 30.03 in 10.0 mi NW 3.5 mph - N/A   Clear
4:56 AM 46.0 °F 43.9 °F 44.1 °F 93% 30.03 in 10.0 mi NW 4.6 mph - 0.00 in Rain Light Rain
5:56 AM 42.1 °F - 42.1 °F 100% 30.04 in 9.0 mi Calm Calm - N/A   Partly Cloudy
6:56 AM 46.9 °F - 46.0 °F 97% 30.05 in 10.0 mi Calm Calm - N/A   Partly Cloudy
7:56 AM 53.1 °F - 48.0 °F 83% 30.06 in 10.0 mi WNW 3.5 mph - N/A   Partly Cloudy
8:56 AM 57.9 °F - 46.9 °F 67% 30.07 in 10.0 mi NW 9.2 mph - N/A   Scattered Clouds
9:56 AM 61.0 °F - 46.9 °F 60% 30.05 in 10.0 mi Variable 6.9 mph - N/A   Scattered Clouds
10:56 AM 62.1 °F - 48.0 °F 60% 30.02 in 10.0 mi Variable 4.6 mph - N/A   Scattered Clouds
11:56 AM 64.0 °F - 45.0 °F 50% 29.99 in 10.0 mi NNW 12.7 mph - N/A   Mostly Cloudy
12:56 PM 64.0 °F - 42.1 °F 45% 29.96 in 10.0 mi NNW 12.7 mph 17.3 mph N/A   Scattered Clouds
1:56 PM 66.9 °F - 41.0 °F 39% 29.95 in 10.0 mi NW 10.4 mph 18.4 mph N/A   Partly Cloudy
2:56 PM 64.9 °F - 39.9 °F 40% 29.96 in 10.0 mi NW 10.4 mph - N/A   Partly Cloudy
3:56 PM 63.0 °F - 37.9 °F 40% 29.97 in 10.0 mi NNW 9.2 mph 17.3 mph N/A   Partly Cloudy
4:56 PM 59.0 °F - 39.9 °F 49% 29.99 in 10.0 mi NW 3.5 mph - N/A   Partly Cloudy
5:56 PM 53.1 °F - 42.1 °F 66% 30.02 in 10.0 mi Calm Calm - N/A   Partly Cloudy
6:56 PM 51.1 °F - 42.1 °F 71% 30.04 in 10.0 mi WNW 3.5 mph - N/A   Scattered Clouds
7:56 PM 48.9 °F - 44.1 °F 83% 30.07 in 10.0 mi Calm Calm - N/A   Mostly Cloudy
8:56 PM 54.0 °F - 41.0 °F 62% 30.10 in 10.0 mi North 5.8 mph - N/A   Scattered Clouds
9:56 PM 51.1 °F - 39.9 °F 66% 30.12 in 10.0 mi North 4.6 mph - N/A   Clear
10:56 PM 50.0 °F - 39.0 °F 66% 30.12 in 10.0 mi North 6.9 mph - N/A   Clear
11:56 PM 48.9 °F - 37.0 °F 64% 30.13 in 10.0 mi North 9.2 mph - N/A   Clear